Regional Weather Roundup
Issued by NWS

Home | Current Version | Previous Version | Graphics & Text | Print | Product List | Glossary Off
Versions: 1 2 3 4 5 6 7 8 9 10 11 12 13 14 15 16 17 18 19 20 21 22 23 24 25 26 27

000
ASUS43 KDMX 250607
RWRIA

WEATHER ROUNDUP FOR IOWA
NATIONAL WEATHER SERVICE DES MOINES IA
100 AM CDT SAT OCT 25 2014

NOTE: "FAIR" INDICATES FEW OR NO CLOUDS BELOW 12,000 FEET WITH NO
SIGNIFICANT WEATHER AND/OR OBSTRUCTIONS TO VISIBILITY.

* - THESE STATIONS ARE NOT NWS STATIONS...THUS NOT UNDER NWS
QUALITY CONTROL.  THEY ALSO DO NOT REPORT WEATHER SUCH
AS PRECIPITATION OR FOG.

IAZ001>003-012>014-020>022-031>034-043>046-250700-
   NORTHWEST IOWA

CITY           SKY/WX    TMP DP  RH WIND       PRES   REMARKS
CARROLL *      CLEAR     52  48  87 W8        30.00R
CHEROKEE *     CLEAR     45  44  99 CALM      30.00F
DENISON *      CLEAR     46  46 100 CALM      30.00R
LE MARS *      CLEAR     48  45  87 CALM      30.02R
ORANGE CITY *  CLEAR     59  39  47 NW5       30.01R
SHELDON *      CLEAR     46  41  81 NW3       30.01R
SIOUX CITY     CLEAR     48  43  82 W5        30.01S
6HR MIN TEMP:  46; 6HR MAX TEMP:  63;

SPENCER        CLEAR     45  41  86 W6        30.01R
6HR MIN TEMP:  45; 6HR MAX TEMP:  60;

STORM LAKE *   CLEAR     54  46  76 W9        30.01F
$$

IAZ055>058-069>071-079>083-090>094-250700-
   SOUTHWEST IOWA

CITY           SKY/WX    TMP DP  RH WIND       PRES   REMARKS
AUDUBON *      CLEAR     45  41  87 CALM      30.02R
CLARINDA *     FOG       50  50 100 N5        30.01S VSB 1/4
COUNCIL BLFS * CLEAR     59  54  82 N7        30.00S
CRESTON *      FOG       55  55 100 NW5       30.00R VSB 1/2
HARLAN  *      CLEAR     46  46 100 CALM      30.04S FOG
LAMONI         FOG       54  53  97 N3        29.98F VSB 1/4
6HR MIN TEMP:  54; 6HR MAX TEMP:  67;

RED OAK *      CLEAR     50  50 100 NE3       30.00R FOG
SHENANDOAH *   FOG       50  50 100 CALM      30.01R VSB 0
$$

IAZ047>049-059>061-072>074-084-250700-
   CENTRAL IOWA

CITY           SKY/WX    TMP DP  RH WIND       PRES   REMARKS
AMES           CLEAR     49  48  97 CALM      29.96S
6HR MIN TEMP:  49; 6HR MAX TEMP:  58;

ANKENY *       FOG       46  46 100 CALM      29.97S VSB 0
CHARITON *     FOG       54  54 100 W7        29.98S VSB 0
DES MOINES     FOG       55  53  93 CALM      29.97S VSB 1
6HR MIN TEMP:  54; 6HR MAX TEMP:  63;

GRINNELL*      FOG       54  53  97 W5        29.97S VSB 1/4
KNOXVILLE *    FOG       52  52 100 W7        29.96S VSB 0
MARSHALLTOWN   FOG       54  54 100 W3        29.95S VSB<1/4
6HR MIN TEMP:  53; 6HR MAX TEMP:  61;

PELLA *        FOG       54  54  99 CALM      29.98S VSB<1/4
PERRY *          N/A     52  50  93 W8        29.98S
$$

IAZ004>006-015-016-023>025-035-036-250700-
   NORTH CENTRAL IOWA

CITY           SKY/WX    TMP DP  RH WIND       PRES   REMARKS
ALGONA *       CLEAR     54  45  71 W9        29.98R
CLARION *      CLEAR     46  46 100 SW3       29.98R
ESTHERVILLE    CLEAR     51  39  63 NW9       29.99R
6HR MIN TEMP:  50; 6HR MAX TEMP:  61;

FORT DODGE *   CLEAR     52  45  76 W3        29.99R
MASON CITY     CLEAR     52  48  86 W12       29.97R
6HR MIN TEMP:  48; 6HR MAX TEMP:  58;

FOREST CITY *  CLEAR     43  43 100 CALM      29.96R FOG
IOWA FALLS *     N/A     52  50  93 W6        29.99R
$$

IAZ007>011-017>019-026>030-037>042-050>054-066-250700-
   NORTHEAST IOWA

CITY           SKY/WX    TMP DP  RH WIND       PRES   REMARKS
CEDAR RAPIDS   FOG       49  49 100 CALM      29.93F VSB<1/4
6HR MIN TEMP:  49; 6HR MAX TEMP:  58;

CHARLES CITY * FOG       48  48 100 SW3       29.95R VSB 0
CLINTON *      CLOUDY    54  52  94 CALM      29.95F VSB<1/4
DECORAH *      FOG       57  57 100 VRB7G13   29.93R VSB 1
DUBUQUE        CLOUDY    58  58 100 W9        29.94R FOG
6HR MIN TEMP:  57; 6HR MAX TEMP:  60;

MONTICELLO *   CLOUDY    59  59 100 CALM      29.94S FOG
OELWEIN *      FOG       57  57 100 W7        29.95S VSB 0
WATERLOO       FOG       55  55 100 W5        29.94S VSB 1/4
6HR MIN TEMP:  55; 6HR MAX TEMP:  58;

$$

IAZ064-065-067-068-078-250700-
   EAST CENTRAL IOWA

CITY           SKY/WX    TMP DP  RH WIND       PRES   REMARKS
DAVENPORT      FOG       51  50  96 W7        29.95S VSB 1/4
6HR MIN TEMP:  51; 6HR MAX TEMP:  65;

IOWA CITY      FOG       51  51 100 CALM      29.96F VSB 1/4
6HR MIN TEMP:  49; 6HR MAX TEMP:  60;

MT. PLEASANT * FOG       51  51 100 CALM      29.97R VSB 1/4
MUSCATINE *    FOG       50  50 100 CALM      29.95F VSB 1/4
QUAD CITIES    FOG       54  52  93 W6        29.94S VSB 1/2
6HR MIN TEMP:  52; 6HR MAX TEMP:  63;

$$

IAZ062-063-075>077-085>089-095>099-250700-
   SOUTHEAST IOWA

CITY           SKY/WX    TMP DP  RH WIND       PRES   REMARKS
BURLINGTON     MOCLDY    52  52 100 NW3       29.96R FOG
6HR MIN TEMP:  51; 6HR MAX TEMP:  65;

FAIRFIELD *    CLOUDY    50  48  93 CALM      29.96F
FORT MADISON * CLEAR     54  54 100 W3        29.97R FOG
KEOKUK *       FOG       55  55 100 W5        29.96R VSB 1/4
OSKALOOSA *    FOG       51  50  98 W7        29.97S VSB<1/4
CENTERVILLE *  FOG       50  50 100 SW3       30.00R VSB 1/2
OTTUMWA        FOG       55  55 100 W6        29.96S VSB 1/2
6HR MIN TEMP:  51; 6HR MAX TEMP:  63;

WASHINGTON *   FOG       50  50 100 SW5       29.96S VSB 0
$$

ABBREVIATIONS USED IN REMARKS
   TC - TEMPERATURES IN CELSIUS
  WCI - WIND CHILL INDEX
   HX - HEAT INDEX
  VSB - VISIBILITY
$$




USA.gov is the U.S. government's official web portal to all federal, state and local government web resources and services.